ROMMA est une association bénévole à but non lucratif. Votre soutien est indispensable : ADHERER à ROMMA ou FAIRE un DON

Nice - (06, Alpes-Maritimes)

Côte-d'Azur (190 m)   Longitude: 07° 14' E   Latitude: 43° 43' N Station partenaire n°136
 

Détail journalier du     <<     >>

Température Precipitation Humidité Pression Vent Dir Rafale Dir. rafale Ensol.
Heure (°C) (mm) (%) (hPa) (km/h) (km/h) (min)
01:00 19.608810091---11NO0
02:00 16.718110097NNO32NNO0
03:00 17.3076100811NNO32NNO0
04:00 15.70.88310058NNO24NNO0
05:00 16.0077100411NNO34NNO0
06:00 16.607010036NNO18NO0
07:00 17.1067100211NNO29NNO0
08:00 16.906710025N27NNO0
09:00 18.906010026NNO23NNO20
10:00 21.305210037NNO32NNO60
11:00 22.904910036ESE21NNE60
12:00 23.904910037SE16SE60
13:00 24.3061100410ESE23ESE60
14:00 23.8062100310SE27SE60
15:00 23.1063100410SE21SE60
16:00 22.906810049SSE21SSE60
17:00 21.807210047SSE16SSE60
18:00 20.307510046SSE15SSE10
19:00 19.207710052SSE10SSE0
20:00 18.4080100600---0
21:00 18.407710063NO6NO0
22:00 18.407810074NNO15NNO0
23:00 17.808110075NO18NO0
minuit 18.307510077NO21NO0

Graphique du 02-10-2019

 

Serveur OMMA